Regional Weather Roundup
Issued by NWS Boston, MA

Home | Current Version | Previous Version | Text Only | Print | Product List | Glossary On
Versions: 1 2 3 4 5 6 7 8 9 10 11 12 13 14 15 16 17 18 19 20 21 22 23 24 25 26 27 28 29 30 31 32 33 34 35 36 37 38 39 40 41 42 43 44 45 46 47 48 49 50
701
ASUS41 KBOX 270310
RWRBOX

REGIONAL WEATHER ROUNDUP
NATIONAL WEATHER SERVICE TAUNTON MA
1100 PM EDT FRI MAY 26 2017

NOTE:  "FAIR" INDICATES FEW OR NO CLOUDS BELOW 12,000 FEET WITH NO
SIGNIFICANT WEATHER AND/OR OBSTRUCTIONS TO VISIBILITY.

MAZALL-270400-
EASTERN MASSACHUSETTS

CITY           SKY/WX    TMP DP  RH WIND       PRES   REMARKS
BOSTON         CLOUDY    53  53 100 CALM      29.74R
BEVERLY        CLOUDY    55  53  93 CALM      29.73R
LAWRENCE       LGT RAIN  56  53  90 CALM      29.75R
BEDFORD        CLOUDY    54  51  90 CALM      29.73R
BLUE HILL        N/A     51  50  96 NE5       29.73R
NORWOOD        LGT RAIN  54  53  97 CALM      29.73S FOG
MARSHFIELD     CLOUDY    54  54 100 CALM      29.73R FOG
PLYMOUTH       CLOUDY    53  50  89 NE5       29.73R
TAUNTON        CLOUDY    54  51  90 NE5       29.72R
NEW BEDFORD    CLOUDY    56  55  97 NE6       29.70S
$$

MAZALL-270400-
CAPE COD AND THE ISLANDS

CITY           SKY/WX    TMP DP  RH WIND       PRES   REMARKS
FALMOUTH         N/A    N/A N/A N/A MISG        N/A
HYANNIS        CLOUDY    53  51  93 N3        29.71S
CHATHAM        CLOUDY    53  52  96 CALM      29.72S
PROVINCETOWN   LGT RAIN  51  50  96 W3        29.74R FOG
NANTUCKET      CLOUDY   N/A N/A N/A NE7       29.72R
MARTHAS VNYRD  CLOUDY    57  55  93 W3        29.71S
$$

MAZALL-270400-
CENTRAL AND WESTERN MASSACHUSETTS

CITY           SKY/WX    TMP DP  RH WIND       PRES   REMARKS
WORCESTER      CLOUDY    52  49  89 W13       29.74R
FITCHBURG      CLOUDY    57  53  86 N7        29.75R
ORANGE         CLOUDY    54  52  93 NW3       29.75R
SPRINGFIELD    MOCLDY    56  53  89 CALM      29.74R
WESTFIELD      CLOUDY    57  53  86 W10       29.75R
NORTH ADAMS    CLOUDY    53  51  93 SW6       29.78R
$$

RIZALL-270400-
RHODE ISLAND

CITY           SKY/WX    TMP DP  RH WIND       PRES   REMARKS
PROVIDENCE     CLOUDY    58  56  93 NW6       29.72S
NEWPORT        CLOUDY    58  57  97 W6        29.72R
BLOCK ISLAND   CLOUDY    58  56  93 W5        29.74S
SMITHFIELD     CLOUDY    54  53  97 NW6       29.73R
WESTERLY       CLOUDY    61  56  83 VRB6      29.74R
$$

CTZALL-270400-
CONNECTICUT

CITY           SKY/WX    TMP DP  RH WIND       PRES   REMARKS
BRADLEY INTL   CLOUDY    58  52  80 NW10      29.76R
HARTFORD       CLOUDY    61  53  75 NW6       29.76R
BRIDGEPORT     CLOUDY    64  55  72 NW8       29.76R
DANBURY        CLOUDY    59  56  89 W3        29.79R
GROTON         CLOUDY    60  55  83 NW6       29.74R
NEW HAVEN      CLOUDY    63  53  70 N9        29.76R
CHESTER        CLOUDY    59  55  88 N9        29.76R
MERIDEN        CLOUDY    61  53  75 N7        29.76R
WILLIMANTIC    CLOUDY    60  56  86 W3        29.75R
OXFORD           N/A     59  48  67 N9        29.79R
$$

MEZ002-015-021-024-NHZ003-005-008-011-012-014-VTZ005-008-270400-
NORTHERN NEW ENGLAND

CITY           SKY/WX    TMP DP  RH WIND       PRES   REMARKS
PORTLAND ME    CLOUDY    51  48  89 N6        29.72R
BANGOR ME      CLOUDY    49  47  93 N12       29.68S
CONCORD NH     CLOUDY    54  51  90 CALM      29.75R
MANCHESTER NH  DRIZZLE   54  51  90 CALM      29.73R
NASHUA NH      CLOUDY    54  52  93 CALM      29.75R
PORTSMOUTH NH  CLOUDY    53  48  81 W5        29.73R
JAFFREY NH     CLOUDY    53  53 100 CALM      29.75R
KEENE NH       CLOUDY    54  52  93 CALM      29.76R
BURLINGTON VT  CLOUDY    53  50  89 N7        29.81R
MT. WASHINGTON NOT AVBL
$$

NYZ052-076-270400-
EASTERN NEW YORK

CITY           SKY/WX    TMP DP  RH WIND       PRES   REMARKS
ALBANY         CLOUDY    55  52  89 N6        29.80R
NEW YORK CITY  PTCLDY    66  53  63 NW9       29.78R
$$

ANZALL-270400-
MARINE OBSERVATIONS

STATION/POSITION TIME  TEMP    WIND        PRES    VSBY  WAVE
                       AIR SEA DIR/SP/G                  HT/PER
                 (UTC) (F)     (DEG/KT/KT) (MB)    (MI)  (FT/S)
BOSTON BUOY      0250   52 53  290/  2/  4 1005.6R         5/ 8
BUZZARDS BAY     0200   56     250/ 12/ 13 1006.4R
NANTUCKET SOUND  0250      55              1006.1R         1/ 8
MASS BAY-STELLWA 0204   50 49  240/  2/  2 1005.4R         3/ 8
ISLE OF SHOALS   0200   53      10/  9/ 11 1006.0R
S OF BLOCK IS    0255      53                N/A           7/ 8
$$

......................KEY.........................
  SKY/WX - SKY CONDITION/PRESENT WEATHER
  TMP    - TEMPERATURE IN FAHRENHEIT
  DWPT   - DEWPOINT IN FAHRENHEIT
  RH     - RELATIVE HUMIDITY IN PERCENT
  WIND   - DIRECTION AND SPEED IN MPH
  PRES   - MEAN SEA LEVEL PRESSURE IN INCHES OF HG
  WCI    - WIND CHILL INDEX
  VSB    - VISIBILITY IN MILES
  HX     - HEAT INDEX
  TC     - TEMPERATURE IN CELSIUS
  VRB    - VARIABLE WIND DIRECTION
  N/A    - NOT AVAILABLE




USA.gov is the U.S. government's official web portal to all federal, state and local government web resources and services.